TimePST,TemperatureF,Dew PointF,Humidity,Sea Level PressureIn,VisibilityMPH,Wind Direction,Wind SpeedMPH,Gust SpeedMPH,PrecipitationIn,Events,Conditions,WindDirDegrees,DateUTC
12:09 AM,30.9,28.9,92,30.25,1.5,Calm,Calm,-,N/A,,Scattered Clouds,0,2013-03-09 08:09:00
12:11 AM,30.9,28.9,92,30.25,0.8,Calm,Calm,-,N/A,,Mist,0,2013-03-09 08:11:00
12:19 AM,30.9,30.0,96,30.25,0.2,Calm,Calm,-,N/A,Fog,Light Freezing Fog,0,2013-03-09 08:19:00
12:28 AM,30.9,30.0,96,30.25,0.5,SSE,3.5,-,N/A,Fog,Light Freezing Fog,160,2013-03-09 08:28:00
12:38 AM,30.0,30.0,100,30.26,0.2,Calm,Calm,-,N/A,Fog,Light Freezing Fog,0,2013-03-09 08:38:00
12:54 AM,30.0,30.0,100,30.27,0.2,Calm,Calm,-,N/A,Fog,Light Freezing Fog,0,2013-03-09 08:54:00
1:30 AM,28.9,28.0,96,30.27,1.0,Calm,Calm,-,N/A,,Mist,0,2013-03-09 09:30:00
1:34 AM,28.9,28.0,96,30.28,2.5,Calm,Calm,-,N/A,,Overcast,0,2013-03-09 09:34:00
1:41 AM,28.9,28.0,96,30.28,0.8,Calm,Calm,-,N/A,,Mist,0,2013-03-09 09:41:00
1:52 AM,28.4,26.6,93,30.28,0.2,Calm,Calm,-,N/A,Fog,Light Freezing Fog,0,2013-03-09 09:52:00
1:54 AM,28.0,27.0,96,30.29,0.2,Calm,Calm,-,N/A,Fog,Light Freezing Fog,0,2013-03-09 09:54:00
2:54 AM,28.9,28.0,96,30.29,0.2,Calm,Calm,-,N/A,Fog,Light Freezing Fog,0,2013-03-09 10:54:00
3:42 AM,28.9,28.9,100,30.30,0.5,Calm,Calm,-,N/A,Fog,Light Freezing Fog,0,2013-03-09 11:42:00
3:54 AM,28.9,28.9,100,30.31,0.2,Calm,Calm,-,N/A,Fog,Light Freezing Fog,0,2013-03-09 11:54:00
4:28 AM,28.4,28.4,100,30.31,0.5,Calm,Calm,-,N/A,Fog,Light Freezing Fog,0,2013-03-09 12:28:00
4:41 AM,28.9,28.0,96,30.32,0.2,Calm,Calm,-,N/A,Fog,Light Freezing Fog,0,2013-03-09 12:41:00
4:54 AM,30.0,28.9,96,30.33,0.2,Calm,Calm,-,N/A,Fog,Light Freezing Fog,0,2013-03-09 12:54:00
5:52 AM,30.2,30.2,100,30.35,0.8,Calm,Calm,-,N/A,,Overcast,0,2013-03-09 13:52:00
5:54 AM,30.0,30.0,100,30.35,0.8,Calm,Calm,-,N/A,,Overcast,0,2013-03-09 13:54:00
6:31 AM,28.9,28.0,96,30.36,0.2,Calm,Calm,-,N/A,Fog,Light Freezing Fog,0,2013-03-09 14:31:00
6:54 AM,28.9,28.0,96,30.38,0.2,Calm,Calm,-,N/A,Fog,Light Freezing Fog,0,2013-03-09 14:54:00
7:54 AM,30.0,30.0,100,30.40,0.2,South,3.5,-,N/A,Fog,Light Freezing Fog,170,2013-03-09 15:54:00
8:17 AM,30.9,30.9,100,30.41,0.5,Calm,Calm,-,N/A,Fog,Light Freezing Fog,0,2013-03-09 16:17:00
8:27 AM,32.0,32.0,100,30.40,1.8,Calm,Calm,-,N/A,,Overcast,0,2013-03-09 16:27:00
8:30 AM,32.0,32.0,100,30.41,3.0,Calm,Calm,-,N/A,,Mostly Cloudy,0,2013-03-09 16:30:00
8:54 AM,33.1,33.1,100,30.42,6.0,Calm,Calm,-,N/A,,Scattered Clouds,0,2013-03-09 16:54:00
9:54 AM,39.0,36.0,89,30.44,10.0,WSW,4.6,-,N/A,,Partly Cloudy,240,2013-03-09 17:54:00
10:54 AM,46.0,37.0,71,30.45,10.0,Variable,4.6,-,N/A,,Clear,0,2013-03-09 18:54:00
11:54 AM,50.0,39.0,66,30.45,10.0,South,4.6,-,N/A,,Partly Cloudy,180,2013-03-09 19:54:00
12:54 PM,54.0,36.0,51,30.45,10.0,SSW,8.1,-,N/A,,Partly Cloudy,200,2013-03-09 20:54:00
1:54 PM,54.0,36.0,51,30.43,10.0,Variable,3.5,-,N/A,,Partly Cloudy,0,2013-03-09 21:54:00
2:54 PM,55.9,36.0,47,30.43,10.0,Variable,5.8,-,N/A,,Partly Cloudy,0,2013-03-09 22:54:00
3:54 PM,57.0,36.0,45,30.43,10.0,SSW,9.2,-,N/A,,Partly Cloudy,200,2013-03-09 23:54:00
4:54 PM,55.9,34.0,44,30.44,10.0,West,6.9,-,N/A,,Partly Cloudy,260,2013-03-10 00:54:00
5:54 PM,51.1,36.0,56,30.45,10.0,West,6.9,-,N/A,,Clear,280,2013-03-10 01:54:00
6:54 PM,46.9,35.1,63,30.48,10.0,Calm,Calm,-,N/A,,Clear,0,2013-03-10 02:54:00
7:54 PM,37.9,34.0,86,30.49,10.0,SSE,3.5,-,N/A,,Clear,160,2013-03-10 03:54:00
8:54 PM,37.9,34.0,86,30.50,10.0,ESE,4.6,-,N/A,,Clear,110,2013-03-10 04:54:00
9:54 PM,37.0,34.0,89,30.51,10.0,Calm,Calm,-,N/A,,Clear,0,2013-03-10 05:54:00
10:54 PM,33.1,30.9,92,30.51,10.0,Calm,Calm,-,N/A,,Clear,0,2013-03-10 06:54:00
11:54 PM,30.9,30.0,96,30.51,9.0,Calm,Calm,-,N/A,,Clear,0,2013-03-10 07:54:00